Location: Haulchin
(50.3172°N, 3.4360°E)
Time: 00:53:20
(UTC+00:00)

Cosmos 2333 Rocket - Pass Details

Date: 16 August 2024
Orbit: 838 x 863 km, 70.8° (Epoch: 09 September)

Event Time Altitude Azimuth Distance (km) Brightness Sun altitude
Exits shadow 23:56:35 61° 244° (WSW) 972 2.3 -26.3°
Maximum altitude 23:57:29 74° 301° (WNW) 901 2.3 -26.3°
Drops below altitude 10° 00:03:17 10° 27° (NNE) 2,514 5.5 -26.3°
Sets 00:05:46 0° 30° (NNE) 3,455 6.4 -26.3°
